Find STARLINK-37268

NORAD ID: 70480 Constellation: starlink operational
LEOCIRCULARRETROGRADE

实时位置

正在加载3D地球...

关于 STARLINK-37268

正在加载描述...

即将过境

Passes for default location (London). Set your location on the main map for personalized predictions.

高度历史

Loading altitude history...

两行轨道根数

1 70480C 26082V 26106.32340278 -.00491760 00000+0 -54809-3 0 1068
2 70480 97.2886 327.8384 0009669 265.5586 316.2471 16.09639011 14
Epoch: Apr 16, 2026 • Age: 19 hours